[[{"header":{"parameterUnit":"m.s-1","parameterCategory":1,"la1":30.2991,"la2":30.254,"lo1":-89.0895,"lo2":-89.0444,"dy":0.0017,"dx":0.0017,"nx":28,"ny":28,"refTime":"2025-07-28T09:00:00:Z","depth":0,"parameterNumber":2,"parameterNumberName":"U-component_of_WINDS"},"data":[0,0,0,0,0,0,0,0,0,0,0,0,0,0,0,0,0,0,0,0,0,0,0,0,0,0,0,0,0,0,0,0,0,0,0,0,0,0,0,0,0,0,0,0,0,0,0,0,0,0,0,0,0,0,0,0,0,0,2.2564,2.2564,0,2.2582,2.2582,2.2583,2.2501,2.2498,2.2496,2.2494,2.2515,2.2517,2.252,0,0,0,0,0,0,0,0,0,0,0,0,0,2.2462,2.2464,2.2564,2.2564,2.2565,2.2582,2.2582,2.2583,2.2501,2.2498,2.2495,2.2493,2.2514,2.2517,2.252,0,0,0,0,0,0,0,0,0,0,0,0,0,2.2496,2.2465,2.2564,2.2526,2.2523,2.2582,2.2582,2.2583,2.2502,2.2498,2.2495,2.2491,2.2513,2.2517,2.2521,2.2618,0,0,2.2534,2.2535,0,0,0,0,0,0,0,0,2.2494,2.25,2.2531,2.2529,2.2525,2.2536,2.2554,2.2595,2.2503,2.251,2.2494,2.249,2.2525,2.2528,2.2539,2.2619,2.262,2.2534,2.2537,2.2538,2.254,0,0,0,0,0,0,0,2.2492,2.2498,2.2571,2.2532,2.2528,2.2509,2.251,2.2561,2.2537,2.2509,2.2503,2.2506,2.2522,2.2535,2.2539,2.2621,2.2534,2.2538,2.254,2.2542,2.2783,2.2787,0,0,0,0,0,0,2.2494,2.2497,2.2571,2.2572,2.25,2.2514,2.2515,2.2536,2.2536,2.2533,2.2509,2.2502,2.253,2.2534,2.2539,2.2655,2.2538,2.2542,2.2545,2.278,2.2784,2.2788,0,0,0,0,0,0,2.2492,2.2501,2.257,2.2533,2.254,2.2519,2.2544,2.2538,2.2551,2.2537,2.2532,2.2527,2.2527,2.2533,2.26,2.2654,2.2544,2.2548,2.2775,2.2781,2.2786,2.2886,0,0,0,0,0,0,2.249,2.2501,2.2537,2.2534,2.2542,2.263,2.2547,2.2541,2.2558,2.2549,2.2552,2.2549,2.2525,2.2594,2.2604,2.2658,2.2551,2.277,2.2778,2.2785,2.2878,2.2894,2.2909,0,0,0,0,0,2.2486,2.2565,2.254,2.2549,2.2587,2.2633,2.2637,2.2608,2.2563,2.26,2.2591,2.2549,2.2646,2.2601,2.2612,2.2668,2.2766,2.2775,2.2784,2.2871,2.2891,2.2908,0,0,0,0,0,0,2.2576,2.2564,2.2536,2.2615,2.2626,2.2619,2.2664,2.263,2.2654,2.2645,2.2607,2.2608,2.2682,2.2681,2.2631,2.2763,2.2699,2.271,2.2761,2.278,2.2796,2.2795,2.2555,0,0,0,0,0,2.2605,2.2642,2.263,2.2701,2.2708,2.2686,2.2704,2.268,2.269,2.2694,2.2689,2.2701,2.2734,2.2757,2.2787,2.2877,2.2877,2.2921,2.2936,2.2949,2.296,2.3009,2.3029,2.2817,2.2817,2.2817,0,0,2.2665,2.2663,2.2689,2.2719,2.2724,2.2765,2.269,2.2735,2.2765,2.2701,2.2763,2.2761,2.2771,2.285,2.2884,2.2852,2.3018,2.296,2.2971,2.2974,2.302,2.304,2.3058,2.2823,2.2822,2.2821,0,0,2.2796,2.2798,2.2858,2.2865,2.2873,2.2858,2.2873,2.2871,2.2867,2.2928,2.2881,2.2917,2.2974,2.2984,2.2997,2.3132,2.3095,2.3143,2.3225,2.3273,2.329,2.3304,2.3354,2.3372,2.3153,2.3154,2.3154,0,2.287,2.2928,2.2894,2.2943,2.2958,2.2901,2.2963,2.2971,2.299,2.3002,2.2965,2.3037,2.304,2.3121,2.3154,2.3165,2.3182,2.3143,2.329,2.3304,2.3317,2.3365,2.3383,2.3159,2.3159,2.3158,2.3158,0,2.302,2.3061,2.3109,2.3128,2.3149,2.3204,2.3179,2.3204,2.3178,2.3167,2.3232,2.3233,2.3263,2.328,2.3255,2.3358,2.3338,2.3296,2.3231,2.3344,2.3388,2.3405,2.3168,2.3166,2.3164,2.3163,0,0,2.3208,2.3207,2.3226,2.3234,2.3239,2.3271,2.3324,2.3353,2.3376,2.339,2.3435,2.3486,2.3447,2.3461,2.3438,2.348,2.3589,2.3433,2.3432,2.3463,2.3704,2.3736,2.3758,2.3564,2.3567,2.357,2.3704,0,2.3338,2.3428,2.3399,2.3491,2.3529,2.3476,2.3522,2.3531,2.3523,2.3555,2.3545,2.3582,2.3528,2.3536,2.3575,2.3567,2.3637,2.3557,2.3607,2.3609,2.3607,2.378,2.3815,2.3941,2.372,2.3723,2.3725,0,2.3501,2.3522,2.3618,2.3618,2.3633,2.3675,2.3699,2.373,2.374,2.373,2.3747,2.3714,2.3768,2.3702,2.3775,2.3722,2.374,2.3739,2.3744,2.3748,2.3675,2.3791,2.398,2.4,2.3751,2.3749,2.3747,0,2.3631,2.3683,2.3747,2.3756,2.3757,2.3788,2.379,2.3796,2.3815,2.3837,2.3849,2.3876,2.3892,2.3915,2.3891,2.3845,2.3969,2.39,2.3964,2.3965,2.3994,2.3993,2.419,2.4004,2.4003,2.4003,2.4003,0,2.3779,2.3841,2.3806,2.3846,2.3913,2.3879,2.3947,2.3943,2.3948,2.3987,2.3942,2.398,2.3946,2.3981,2.3962,2.4027,2.4034,2.4029,2.4024,2.4034,2.4035,2.4047,2.4038,2.4008,2.4007,2.4006,2.4005,0,2.3936,2.3915,2.3982,2.3977,2.3978,2.4028,2.4024,2.4061,2.4049,2.4099,2.4109,2.4091,2.4129,2.4108,2.4147,2.4135,2.422,2.4202,2.4217,2.4213,2.4278,2.4273,2.4491,2.4519,2.4313,2.4315,2.4317,0,2.4033,2.4079,2.4079,2.4102,2.4107,2.4144,2.4163,2.4131,2.4154,2.4168,2.4205,2.4239,2.4265,2.433,2.4321,2.4352,2.4335,2.4409,2.4339,2.4349,2.4338,2.4336,2.4341,2.4424,2.4426,2.4428,2.443,0,2.4208,2.4195,2.4224,2.4251,2.4275,2.4295,2.431,2.4332,2.43,2.4328,2.4367,2.4387,2.4428,2.4464,2.449,2.4493,2.4457,2.4452,2.4468,2.448,2.4488,2.4486,2.4257,2.4447,2.4446,2.4444,2.4443,2.4443,2.4339,2.4377,2.4384,2.4419,2.4427,2.4443,2.4478,2.447,2.4502,2.4532,2.4511,2.4558,2.4567,2.4599,2.4606,2.4643,2.4613,2.4637,2.4643,2.465,2.466,2.4481,2.4647,2.4647,2.4646,2.4646,2.4646,0,2.4512,2.4514,2.4546,2.4569,2.4597,2.456,2.4575,2.4601,2.4642,2.4654,2.468,2.4726,2.476,2.4754,2.4785,2.4816,2.4801,2.4826,2.4824,2.4825,2.4684,2.4667,2.4838,2.4838,2.4838,2.4838,2.4838,2.4838,2.4606,2.467,2.4659,2.4727,2.4728,2.4772,2.4785,2.48,2.4808,2.4861,2.4889,2.4884,2.4889,2.4921,2.4951,2.4948,2.4963,2.4994,2.4986,2.4854,2.4835,2.4817,2.4801,2.4997,2.4998,2.5125,2.5126,2.5127]},{"header":{"parameterUnit":"m.s-1","parameterCategory":1,"la1":30.2991,"la2":30.254,"lo1":-89.0895,"lo2":-89.0444,"dy":0.0017,"dx":0.0017,"nx":28,"ny":28,"refTime":"2025-07-28T09:00:00:Z","depth":0,"parameterNumber":3,"parameterNumberName":"V-component_of_WINDS"},"data":[0,0,0,0,0,0,0,0,0,0,0,0,0,0,0,0,0,0,0,0,0,0,0,0,0,0,0,0,0,0,0,0,0,0,0,0,0,0,0,0,0,0,0,0,0,0,0,0,0,0,0,0,0,0,0,0,0,0,-2.0213,-2.0213,0,-2.0277,-2.0277,-2.0278,-2.0268,-2.0267,-2.0266,-2.0265,-2.0333,-2.0336,-2.0338,0,0,0,0,0,0,0,0,0,0,0,0,0,-2.0084,-2.0087,-2.0212,-2.0213,-2.0214,-2.0276,-2.0277,-2.0278,-2.0269,-2.0267,-2.0266,-2.0265,-2.0332,-2.0335,-2.0339,0,0,0,0,0,0,0,0,0,0,0,0,0,-2.0143,-2.0088,-2.0212,-2.0217,-2.0218,-2.0276,-2.0277,-2.0278,-2.0269,-2.0267,-2.0266,-2.0264,-2.0331,-2.0335,-2.0339,-2.0398,0,0,-2.0352,-2.0354,0,0,0,0,0,0,0,0,-2.014,-2.0148,-2.0215,-2.0217,-2.0218,-2.0263,-2.0257,-2.0319,-2.0269,-2.025,-2.0265,-2.0263,-2.0311,-2.0317,-2.0332,-2.0401,-2.0404,-2.0352,-2.0355,-2.0357,-2.0358,0,0,0,0,0,0,0,-2.0136,-2.0145,-2.0238,-2.0216,-2.0218,-2.0216,-2.0223,-2.0269,-2.0289,-2.0251,-2.0251,-2.0258,-2.0311,-2.0328,-2.0334,-2.0405,-2.0352,-2.0356,-2.0359,-2.036,-2.0526,-2.0528,0,0,0,0,0,0,-2.013,-2.0142,-2.0236,-2.024,-2.0174,-2.022,-2.0227,-2.025,-2.0288,-2.0292,-2.0259,-2.0257,-2.0322,-2.0329,-2.0336,-2.0408,-2.0357,-2.0361,-2.0363,-2.0524,-2.0527,-2.0529,0,0,0,0,0,0,-2.0128,-2.0139,-2.0233,-2.0191,-2.0203,-2.0224,-2.0249,-2.0252,-2.0269,-2.0294,-2.0298,-2.0273,-2.0321,-2.033,-2.0383,-2.041,-2.0363,-2.0367,-2.0522,-2.0525,-2.0528,-2.0552,0,0,0,0,0,0,-2.0124,-2.0138,-2.016,-2.0191,-2.0205,-2.0278,-2.0251,-2.0255,-2.0276,-2.0274,-2.0308,-2.0312,-2.032,-2.0376,-2.0387,-2.0415,-2.037,-2.052,-2.0523,-2.0527,-2.0549,-2.0555,-2.0561,0,0,0,0,0,-2.0119,-2.0164,-2.0161,-2.0172,-2.0233,-2.0279,-2.0287,-2.0295,-2.0278,-2.0301,-2.0318,-2.0311,-2.0406,-2.0382,-2.0394,-2.0424,-2.0518,-2.0522,-2.0526,-2.0546,-2.0554,-2.0561,0,0,0,0,0,0,-2.0136,-2.0169,-2.0165,-2.0222,-2.0248,-2.0278,-2.0307,-2.0303,-2.0335,-2.0332,-2.0341,-2.0349,-2.0402,-2.0418,-2.0391,-2.0483,-2.046,-2.0466,-2.0471,-2.0478,-2.0484,-2.048,-2.0373,0,0,0,0,0,-2.0147,-2.0181,-2.0208,-2.0255,-2.0268,-2.0285,-2.0306,-2.031,-2.0337,-2.0349,-2.0369,-2.0397,-2.0433,-2.0457,-2.0491,-2.0551,-2.0559,-2.0578,-2.0584,-2.0588,-2.0594,-2.0628,-2.0637,-2.0542,-2.0542,-2.0542,0,0,-2.0168,-2.019,-2.0211,-2.0259,-2.028,-2.0316,-2.0295,-2.0334,-2.0361,-2.0355,-2.0406,-2.0421,-2.0453,-2.051,-2.0536,-2.0525,-2.0622,-2.0594,-2.0597,-2.0601,-2.0633,-2.0642,-2.065,-2.0545,-2.0545,-2.0544,0,0,-2.0226,-2.0246,-2.0288,-2.0309,-2.034,-2.0351,-2.0361,-2.0392,-2.0402,-2.0453,-2.0449,-2.0482,-2.0544,-2.0567,-2.0587,-2.0654,-2.065,-2.0665,-2.0697,-2.073,-2.0737,-2.0744,-2.0769,-2.0777,-2.0671,-2.0671,-2.0671,0,-2.0249,-2.0303,-2.031,-2.035,-2.0371,-2.0366,-2.0409,-2.043,-2.0471,-2.0487,-2.0473,-2.0551,-2.0572,-2.0635,-2.0651,-2.0667,-2.068,-2.0662,-2.0735,-2.0742,-2.0749,-2.0772,-2.0781,-2.0673,-2.0673,-2.0672,-2.0672,0,-2.033,-2.0368,-2.0398,-2.0438,-2.0462,-2.0504,-2.0517,-2.0542,-2.0544,-2.0556,-2.0609,-2.0634,-2.0674,-2.0689,-2.0691,-2.0752,-2.0744,-2.0733,-2.071,-2.0759,-2.0782,-2.0791,-2.0675,-2.0675,-2.0674,-2.0674,0,0,-2.0401,-2.0444,-2.0455,-2.0473,-2.0507,-2.0537,-2.0578,-2.0617,-2.0638,-2.0667,-2.0702,-2.0755,-2.0745,-2.0768,-2.0773,-2.0801,-2.0854,-2.0787,-2.0788,-2.0799,-2.0924,-2.0932,-2.0942,-2.0851,-2.0853,-2.0854,-2.0921,0,-2.0463,-2.0535,-2.0542,-2.0607,-2.0643,-2.0639,-2.0675,-2.0701,-2.0714,-2.0746,-2.0761,-2.0799,-2.0782,-2.0796,-2.0824,-2.0842,-2.0879,-2.0837,-2.0885,-2.0887,-2.0878,-2.0954,-2.0963,-2.1024,-2.093,-2.0931,-2.0932,0,-2.0544,-2.0575,-2.0643,-2.0673,-2.0689,-2.0721,-2.0757,-2.0788,-2.0817,-2.0825,-2.085,-2.0851,-2.0895,-2.087,-2.0931,-2.0902,-2.0922,-2.0934,-2.0936,-2.0942,-2.0913,-2.0962,-2.1044,-2.1054,-2.0946,-2.0945,-2.0944,0,-2.059,-2.0648,-2.0697,-2.0712,-2.0748,-2.0771,-2.0788,-2.0815,-2.0838,-2.087,-2.0885,-2.0922,-2.0942,-2.0971,-2.0983,-2.0963,-2.1044,-2.1019,-2.1052,-2.1052,-2.1069,-2.1068,-2.1157,-2.1082,-2.1081,-2.1081,-2.1081,0,-2.0658,-2.07,-2.0717,-2.0747,-2.0795,-2.0803,-2.085,-2.0866,-2.0891,-2.0924,-2.0924,-2.0955,-2.0968,-2.1003,-2.1012,-2.1062,-2.1071,-2.1079,-2.1081,-2.1079,-2.1079,-2.1093,-2.109,-2.1084,-2.1083,-2.1083,-2.1082,0,-2.0717,-2.073,-2.0783,-2.0813,-2.0821,-2.0855,-2.0881,-2.0911,-2.0923,-2.0966,-2.0976,-2.0997,-2.1037,-2.1051,-2.11,-2.1107,-2.1165,-2.1163,-2.1155,-2.1155,-2.1188,-2.1185,-2.1289,-2.1304,-2.1218,-2.1219,-2.122,0,-2.076,-2.0792,-2.0825,-2.0847,-2.0864,-2.09,-2.0923,-2.0933,-2.0957,-2.0993,-2.1019,-2.1059,-2.1091,-2.1156,-2.1176,-2.1214,-2.1213,-2.1247,-2.1219,-2.1216,-2.1215,-2.1213,-2.1217,-2.1253,-2.1254,-2.1254,-2.1255,0,-2.0835,-2.084,-2.0873,-2.0908,-2.0936,-2.0964,-2.0992,-2.101,-2.1025,-2.1052,-2.1093,-2.1118,-2.1168,-2.1208,-2.1247,-2.1265,-2.1263,-2.1264,-2.1273,-2.1272,-2.1266,-2.1271,-2.117,-2.1261,-2.1261,-2.126,-2.126,-2.126,-2.0888,-2.0916,-2.0944,-2.0981,-2.1003,-2.1029,-2.1058,-2.1075,-2.1108,-2.1149,-2.1153,-2.1198,-2.1227,-2.1279,-2.1299,-2.1334,-2.1325,-2.1339,-2.1343,-2.1346,-2.1349,-2.126,-2.1341,-2.1341,-2.1341,-2.1341,-2.1341,0,-2.0964,-2.0981,-2.1015,-2.1054,-2.1083,-2.1077,-2.1108,-2.1133,-2.1172,-2.1199,-2.1231,-2.1278,-2.1317,-2.134,-2.1379,-2.1403,-2.1404,-2.1414,-2.1412,-2.1417,-2.1354,-2.1342,-2.1413,-2.1413,-2.1413,-2.1413,-2.1413,-2.1413,-2.1006,-2.1055,-2.1063,-2.1123,-2.1141,-2.1183,-2.1201,-2.1226,-2.1248,-2.13,-2.1332,-2.1347,-2.1373,-2.1414,-2.145,-2.1456,-2.1471,-2.1481,-2.1487,-2.1428,-2.1421,-2.1414,-2.1402,-2.1484,-2.1484,-2.1546,-2.1546,-2.1547]}]]